Lake City Gateway Airport, FL

11:13 AM EDT on May 27, 2017 (GMT -0400)
Lake City Municipal

Weather History for KLCQ - August, 2014

Change the Weather History Date:

Thursday, August 14, 2014

  Actual Average Record
Temperature  
Mean Temperature 78 °F -  
Max Temperature 86 °F 88 °F 89 °F (2015)
Min Temperature 71 °F 70 °F 69 °F (2016)
Cooling Degree Days 14    
Growing Degree Days 28 (Base 50)    
Moisture  
Dew Point 75 °F    
Average Humidity 90    
Maximum Humidity 100    
Minimum Humidity 66    
Precipitation  
Precipitation 0.00 in - - ()
Sea Level Pressure  
Sea Level Pressure 29.99 in    
Wind  
Wind Speed 2 mph ()    
Max Wind Speed 10 mph    
Max Gust Speed 16 mph    
Visibility 7.5 miles    
Events Fog , Rain , Thunderstorm    
Averages and records for this station are not official NWS values.
T = Trace of Precipitation, MM = Missing Value Source: Averaged Metar Reports

Daily Weather History Graph

Daily Weather History Graph

Search for Another Location

Airport or City:

Trip Planner

Search our weather history database for the weather conditions in past years. The results will help you decide how hot, cold, wet, or windy it might be!

Date:

Astronomy

Aug. 14, 2014 Rise Set
Actual Time 6:56 AM EDT 8:12 PM EDT
Civil Twilight 6:31 AM EDT 8:37 PM EDT
Nautical Twilight 6:01 AM EDT 9:07 PM EDT
Astronomical Twilight 5:30 AM EDT 9:38 PM EDT
Moon 10:59 PM EDT (8/14) 11:09 AM EDT (8/14)
Length of Visible Light 14h 06m
Length of Day
13h 15m
Waning Gibbous, 79% of the Moon is Illuminated
Aug 14
Waning Gibbous
Aug 17
Last Quarter
Aug 25
New
Sep 2
First Quarter
Sep 8
Full

Hourly Weather History & Observations

Time (EDT) Temp. Heat Index Dew Point Humidity Pressure Visibility Wind Dir Wind Speed Gust Speed Precip Events Conditions
12:15 AM 73.4 °F - 73.4 °F 100% 29.98 in 10.0 mi Calm Calm - N/A   Clear
12:35 AM 73.4 °F - 73.4 °F 100% 29.99 in 10.0 mi Calm Calm - N/A   Clear
12:55 AM 73.4 °F - 73.4 °F 100% 29.98 in 5.0 mi Calm Calm - N/A   Clear
1:15 AM 73.4 °F - 73.4 °F 100% 29.98 in 3.0 mi Calm Calm - N/A   Clear
1:35 AM 73.4 °F - 73.4 °F 100% 29.98 in 7.0 mi Calm Calm - N/A   Clear
1:55 AM 71.6 °F - 71.6 °F 100% 29.98 in 5.0 mi Calm Calm - N/A   Clear
2:15 AM 73.4 °F - 73.4 °F 100% 29.98 in 5.0 mi Calm Calm - N/A   Clear
2:35 AM 73.4 °F - 73.4 °F 100% 29.97 in 7.0 mi Calm Calm - N/A   Clear
2:55 AM 73.4 °F - 73.4 °F 100% 29.97 in 3.0 mi Calm Calm - N/A   Clear
3:15 AM 71.6 °F - 71.6 °F 100% 29.97 in 2.0 mi Calm Calm - N/A   Scattered Clouds
3:35 AM 73.4 °F - 73.4 °F 100% 29.97 in 5.0 mi Calm Calm - N/A   Mostly Cloudy
3:55 AM 73.4 °F - 73.4 °F 100% 29.97 in 4.0 mi Calm Calm - N/A   Mostly Cloudy
4:15 AM 73.4 °F - 73.4 °F 100% 29.97 in 2.0 mi Calm Calm - N/A   Overcast
4:35 AM 73.4 °F - 73.4 °F 100% 29.97 in 2.0 mi Calm Calm - N/A   Overcast
4:55 AM 73.4 °F - 73.4 °F 100% 29.97 in 2.0 mi Calm Calm - N/A   Overcast
5:15 AM 73.4 °F - 73.4 °F 100% 29.97 in 3.0 mi SSW 3.5 mph - N/A   Mostly Cloudy
5:35 AM 73.4 °F - 73.4 °F 100% 29.97 in 2.0 mi Calm Calm - N/A   Overcast
5:55 AM 73.4 °F - 73.4 °F 100% 29.97 in 0.5 mi Calm Calm - N/A Fog Fog
6:15 AM 73.4 °F - 73.4 °F 100% 29.97 in 0.2 mi Calm Calm - N/A Fog Fog
6:35 AM 73.4 °F - 73.4 °F 100% 29.98 in 0.5 mi SW 3.5 mph - N/A Fog Fog
6:55 AM 73.4 °F - 73.4 °F 100% 29.98 in 0.2 mi Calm Calm - N/A Fog Fog
7:15 AM 73.4 °F - 73.4 °F 100% 29.99 in 0.2 mi Calm Calm - N/A Fog Fog
7:35 AM 73.4 °F - 73.4 °F 100% 30.00 in 0.2 mi SW 3.5 mph - N/A Fog Fog
7:55 AM 73.4 °F - 73.4 °F 100% 30.00 in 1.5 mi Calm Calm - N/A   Overcast
8:15 AM 75.2 °F - 75.2 °F 100% 30.00 in 2.5 mi WSW 4.6 mph - N/A   Overcast
8:35 AM 75.2 °F - 75.2 °F 100% 30.00 in 3.0 mi WSW 3.5 mph - N/A   Overcast
8:55 AM 77.0 °F - 77.0 °F 100% 30.01 in 4.0 mi SW 4.6 mph - N/A   Mostly Cloudy
9:15 AM 77.0 °F - 77.0 °F 100% 30.02 in 7.0 mi WSW 4.6 mph - N/A   Mostly Cloudy
9:35 AM 77.0 °F - 77.0 °F 100% 30.02 in 10.0 mi West 5.8 mph - N/A   Mostly Cloudy
9:55 AM 80.6 °F 87.1 °F 77.0 °F 89% 30.03 in 10.0 mi WSW 5.8 mph - N/A   Mostly Cloudy
10:15 AM 80.6 °F 87.1 °F 77.0 °F 89% 30.02 in 10.0 mi WSW 5.8 mph - N/A   Scattered Clouds
10:35 AM 82.4 °F 90.9 °F 77.0 °F 84% 30.02 in 10.0 mi West 4.6 mph - N/A   Scattered Clouds
10:55 AM 82.4 °F 90.9 °F 77.0 °F 84% 30.02 in 10.0 mi WSW 6.9 mph - N/A   Scattered Clouds
11:15 AM 82.4 °F 90.9 °F 77.0 °F 84% 30.03 in 10.0 mi WSW 6.9 mph - N/A   Clear
11:35 AM 82.4 °F 90.9 °F 77.0 °F 84% 30.03 in 10.0 mi West 4.6 mph - N/A   Clear
11:55 AM 80.6 °F 87.1 °F 77.0 °F 89% 30.03 in 10.0 mi WSW 6.9 mph - N/A   Mostly Cloudy
12:15 PM 80.6 °F 87.1 °F 77.0 °F 89% 30.03 in 10.0 mi SW 5.8 mph - N/A   Overcast
12:35 PM 80.6 °F 87.1 °F 77.0 °F 89% 30.03 in 10.0 mi SW 4.6 mph - N/A   Overcast
12:55 PM 80.6 °F 87.1 °F 77.0 °F 89% 30.02 in 10.0 mi SW 4.6 mph - N/A Thunderstorm Overcast
1:15 PM 82.4 °F 90.9 °F 77.0 °F 84% 30.01 in 10.0 mi WSW 4.6 mph - N/A   Overcast
1:35 PM 82.4 °F 90.9 °F 77.0 °F 84% 30.00 in 10.0 mi West 6.9 mph - N/A   Overcast
1:55 PM 86.0 °F 96.9 °F 77.0 °F 74% 30.00 in 10.0 mi WSW 6.9 mph - N/A   Mostly Cloudy
2:15 PM 86.0 °F 96.9 °F 77.0 °F 74% 29.98 in 10.0 mi SSW 8.1 mph - N/A   Scattered Clouds
2:35 PM 86.0 °F 95.1 °F 75.2 °F 70% 29.97 in 10.0 mi WSW 6.9 mph - N/A Thunderstorm Mostly Cloudy
2:55 PM 84.2 °F 92.3 °F 75.2 °F 74% 29.97 in 10.0 mi WSW 6.9 mph - N/A   Mostly Cloudy
3:15 PM 86.0 °F 96.9 °F 77.0 °F 74% 29.96 in 10.0 mi South 6.9 mph - N/A   Scattered Clouds
3:35 PM 86.0 °F 95.1 °F 75.2 °F 70% 29.96 in 10.0 mi South 5.8 mph - N/A   Scattered Clouds
3:55 PM 84.2 °F 92.3 °F 75.2 °F 74% 29.95 in 10.0 mi South 4.6 mph - N/A   Mostly Cloudy
4:15 PM 82.4 °F 89.5 °F 75.2 °F 79% 29.95 in 10.0 mi SSW 3.5 mph - N/A   Scattered Clouds
4:35 PM 82.4 °F 89.5 °F 75.2 °F 79% 29.96 in 10.0 mi SW 9.2 mph - N/A Thunderstorm Scattered Clouds
4:55 PM 80.6 °F 86.2 °F 75.2 °F 84% 29.96 in 10.0 mi SSW 4.6 mph - N/A   Clear
5:15 PM 80.6 °F 86.2 °F 75.2 °F 84% 29.97 in 10.0 mi SW 6.9 mph - N/A Thunderstorm Mostly Cloudy
5:35 PM 78.8 °F - 77.0 °F 94% 29.96 in 10.0 mi WSW 6.9 mph - N/A Thunderstorm Mostly Cloudy
5:55 PM 82.4 °F 90.9 °F 77.0 °F 84% 29.95 in 10.0 mi WSW 6.9 mph - N/A Thunderstorm Scattered Clouds
6:15 PM 82.4 °F 89.5 °F 75.2 °F 79% 29.95 in 10.0 mi SSW 6.9 mph - N/A   Scattered Clouds
6:35 PM 84.2 °F 90.9 °F 73.4 °F 70% 29.95 in 10.0 mi SW 4.6 mph - N/A   Clear
6:55 PM 84.2 °F 89.6 °F 71.6 °F 66% 29.96 in 10.0 mi SW 3.5 mph - N/A   Clear
7:15 PM 82.4 °F 87.2 °F 71.6 °F 70% 29.96 in 10.0 mi Calm Calm - N/A   Clear
7:35 PM 82.4 °F 88.2 °F 73.4 °F 74% 29.97 in 10.0 mi South 3.5 mph - N/A Thunderstorm Scattered Clouds
7:55 PM 80.6 °F 85.4 °F 73.4 °F 79% 29.98 in 10.0 mi ESE 3.5 mph - N/A   Mostly Cloudy
8:15 PM 78.8 °F - 73.4 °F 83% 29.99 in 10.0 mi East 8.1 mph 16.1 mph N/A Thunderstorm Thunderstorm
8:35 PM 78.8 °F - 73.4 °F 83% 29.99 in 10.0 mi ESE 10.4 mph - N/A Thunderstorm Overcast
8:55 PM 77.0 °F - 73.4 °F 89% 29.98 in 10.0 mi ESE 5.8 mph - N/A Thunderstorm Mostly Cloudy
9:15 PM 77.0 °F - 73.4 °F 89% 29.99 in 10.0 mi ESE 3.5 mph - N/A Thunderstorm Scattered Clouds
9:35 PM 77.0 °F - 73.4 °F 89% 30.00 in 10.0 mi Calm Calm - N/A Thunderstorm Scattered Clouds
9:55 PM 77.0 °F - 71.6 °F 83% 30.00 in 10.0 mi SSE 3.5 mph - N/A Thunderstorm Scattered Clouds
10:15 PM 75.2 °F - 71.6 °F 89% 30.00 in 10.0 mi Calm Calm - N/A   Scattered Clouds
10:35 PM 73.4 °F - 73.4 °F 100% 30.00 in 10.0 mi Calm Calm - N/A   Mostly Cloudy
10:55 PM 73.4 °F - 73.4 °F 100% 30.00 in 10.0 mi South 3.5 mph - N/A Rain Light Rain
11:15 PM 73.4 °F - 73.4 °F 100% 30.00 in 10.0 mi Calm Calm - N/A   Overcast
11:35 PM 73.4 °F - 73.4 °F 100% 30.00 in 10.0 mi SSE 4.6 mph - N/A   Overcast
11:55 PM 73.4 °F - 73.4 °F 100% 29.99 in 10.0 mi SSE 3.5 mph - N/A   Mostly Cloudy